IW0GZ Monterotondo IT current weather conditions

sailwx.info

Air temperature 21.7° C
Dewpoint 14.3° C

Last reported at 2019-Sep-16 22:00 UTC.
Time now 2019-Sep-16 22:25 UTC

Location: N 42°03' E 012°37'.
View on Google Maps.

See reports from other nearby stations

  
Tides and Currents Weather Stations Pressure Air Temp Water Temp Dewpoint Dewpoint Depression Visibility Wind Speed Wind Dir Waves Ship Positions
date/time (UTC)wind fromknots sea level pressurealtimeterstation pressurevisibilityair tempwater tempwave heightnotes
2019-Sep-16 22:09 116 21.1
2019-Sep-16 22:00 21.7
2019-Sep-16 21:49 21.7
2019-Sep-16 21:39 117 21.7
2019-Sep-16 21:29 117 21.7
2019-Sep-16 21:19 117 22.2
2019-Sep-16 21:09 113 21.7
2019-Sep-16 20:59 113 21.7
2019-Sep-16 20:49 113 0 gusting 0 22.2
2019-Sep-16 20:39 125 22.8
2019-Sep-16 20:29 122 22.8
2019-Sep-16 20:19 132 1 gusting 4 23.3
2019-Sep-16 20:09 127 2 gusting 5 23.3
2019-Sep-16 19:59 128 2 gusting 6 23.9
2019-Sep-16 19:49 132 3 gusting 4 23.9
2019-Sep-16 19:39 128 3 gusting 6 23.9
2019-Sep-16 19:29 123 1 gusting 6 23.9
2019-Sep-16 19:19 127 2 gusting 4 24.4
2019-Sep-16 19:09 128 2 gusting 6 24.4
2019-Sep-16 18:59 129 2 gusting 3 24.4
2019-Sep-16 18:49 131 2 gusting 5 24.4
2019-Sep-16 18:39 130 2 gusting 4 24.4
2019-Sep-16 18:29 125 1 gusting 6 25.0
2019-Sep-16 18:19 123 0 gusting 3 25.0
2019-Sep-16 18:09 129 1 gusting 4 25.0
2019-Sep-16 17:59 126 0 gusting 3 25.0
2019-Sep-16 17:49 133 0 gusting 2 25.0
2019-Sep-16 17:39 215 1 gusting 5 25.6
2019-Sep-16 15:49 218 3 gusting 9 28.9
2019-Sep-16 15:39 214 5 gusting 9 28.9
2019-Sep-16 15:29 227 4 gusting 13 28.9
2019-Sep-16 15:19 214 3 gusting 7 29.4
2019-Sep-16 15:09 216 6 gusting 10 29.4
2019-Sep-16 14:59 229 6 gusting 13 28.9
2019-Sep-16 14:49 236 5 gusting 13 29.4
2019-Sep-16 14:39 235 4 gusting 8 29.4
2019-Sep-16 14:29 240 5 gusting 10 29.4
2019-Sep-16 14:19 236 2 gusting 9 29.4
2019-Sep-16 14:09 220 0 gusting 6 30.0
2019-Sep-16 13:59 174 0 gusting 4 30.0
2019-Sep-16 13:49 217 1 gusting 4 29.4
2019-Sep-16 13:39 219 1 gusting 5 29.4
2019-Sep-16 13:29 205 3 gusting 6 29.4
2019-Sep-16 13:19 228 2 gusting 8 28.9
2019-Sep-16 13:09 239 2 gusting 5 29.4
2019-Sep-16 12:59 221 3 gusting 6 29.4
2019-Sep-16 12:49 234 1 gusting 7 29.4
2019-Sep-16 12:39 076 0 gusting 2 30.0
2019-Sep-16 12:29 281 2 gusting 8 30.0
2019-Sep-16 12:19 231 1 gusting 10 29.4
2019-Sep-16 12:09 233 1 gusting 5 29.4
2019-Sep-16 11:59 240 3 gusting 5 28.9
2019-Sep-16 11:49 239 2 gusting 6 29.4
2019-Sep-16 11:39 245 4 gusting 6 28.9
2019-Sep-16 11:29 238 2 gusting 7 28.9
2019-Sep-16 11:19 246 2 gusting 6 28.9
2019-Sep-16 11:09 233 1 gusting 6 28.3
2019-Sep-16 10:59 248 1 gusting 5 28.3
2019-Sep-16 10:49 260 2 gusting 6 27.8
2019-Sep-16 10:39 259 2 gusting 6 27.8
2019-Sep-16 10:29 250 1 gusting 6 28.3
2019-Sep-16 10:19 130 1 gusting 5 28.3
2019-Sep-16 10:09 187 1 gusting 4 27.8
2019-Sep-16 09:59 234 1 gusting 6 27.8
2019-Sep-16 09:49 143 0 gusting 3 28.3
2019-Sep-16 09:39 191 0 gusting 3 27.8
2019-Sep-16 09:29 224 0 gusting 3 26.7
2019-Sep-16 09:19 169 0 gusting 2 26.7
2019-Sep-16 09:09 211 0 gusting 2 26.1
2019-Sep-16 08:59 258 0 gusting 2 25.6
2019-Sep-16 08:49 033 0 gusting 2 25.0
2019-Sep-16 08:39 054 0 gusting 2 24.4
2019-Sep-16 08:29 063 0 gusting 2 23.9
2019-Sep-16 08:19 050 1 gusting 3 22.8
2019-Sep-16 08:09 060 1 gusting 3 22.2
2019-Sep-16 07:59 048 1 gusting 3 21.7
2019-Sep-16 07:49 057 1 gusting 3 21.7
2019-Sep-16 07:39 036 0 gusting 3 21.1
2019-Sep-16 07:29 034 0 gusting 2 21.1
2019-Sep-16 07:19 010 0 gusting 2 20.6
2019-Sep-16 07:09 046 0 gusting 1 20.0
2019-Sep-16 06:59 339 20.0
2019-Sep-16 06:49 067 0 gusting 1 19.4
2019-Sep-16 06:39 041 1 gusting 1 18.3
2019-Sep-16 06:29 044 1 gusting 2 18.3
2019-Sep-16 06:19 044 1 gusting 3 18.3
2019-Sep-16 06:09 021 0 gusting 2 18.3
2019-Sep-16 05:59 319 0 gusting 1 18.3
2019-Sep-16 05:49 003 0 gusting 2 17.8
2019-Sep-16 05:39 001 0 gusting 1 17.8
2019-Sep-16 05:29 006 1 gusting 1 17.8
2019-Sep-16 05:19 033 0 gusting 1 17.8
2019-Sep-16 05:09 048 0 gusting 1 17.8
2019-Sep-16 04:59 059 0 gusting 1 17.8
2019-Sep-16 04:49 030 1 gusting 1 17.8
2019-Sep-16 04:39 021 0 gusting 1 17.8
2019-Sep-16 04:29 056 0 gusting 1 17.8
2019-Sep-16 04:19 030 0 gusting 1 18.3
2019-Sep-16 04:09 055 0 gusting 1 18.3
2019-Sep-16 03:59 031 1 gusting 1 17.8
2019-Sep-16 03:49 033 2 gusting 3 17.8
2019-Sep-16 03:39 023 1 gusting 3 17.8
2019-Sep-16 03:29 020 1 gusting 2 17.8
2019-Sep-16 03:19 030 1 gusting 2 18.3
2019-Sep-16 03:09 014 2 gusting 4 18.3
2019-Sep-16 02:59 026 2 gusting 4 18.3
2019-Sep-16 02:49 027 2 gusting 4 18.3
2019-Sep-16 02:39 011 3 gusting 5 18.3
2019-Sep-16 02:29 007 3 gusting 6 18.3
2019-Sep-16 02:19 020 3 gusting 6 17.8
2019-Sep-16 02:09 020 3 gusting 5 17.8
2019-Sep-16 01:59 011 4 gusting 6 17.8
2019-Sep-16 01:49 002 3 gusting 7 18.3
2019-Sep-16 01:39 356 3 gusting 6 18.3
2019-Sep-16 01:29 016 3 gusting 5 18.3
2019-Sep-16 01:19 002 2 gusting 6 18.9
2019-Sep-16 01:09 005 3 gusting 5 18.3
2019-Sep-16 00:59 014 3 gusting 5 18.3
2019-Sep-16 00:49 007 3 gusting 5 18.9
2019-Sep-16 00:39 004 3 gusting 5 18.9
2019-Sep-16 00:29 001 2 gusting 5 19.4
2019-Sep-16 00:19 014 1 gusting 3 19.4
2019-Sep-16 00:09 014 1 gusting 3 19.4
2019-Sep-15 23:59 007 2 gusting 2 18.9
2019-Sep-15 23:49 357 1 gusting 5 19.4
2019-Sep-15 23:39 353 0 gusting 3 19.4
2019-Sep-15 23:29 358 20.0
2019-Sep-15 23:19 271 20.6
2019-Sep-15 23:09 233 20.6
2019-Sep-15 22:59 233 20.6
2019-Sep-15 22:49 233 21.1
2019-Sep-15 22:39 233 21.1
2019-Sep-15 22:29 232 21.7
2019-Sep-15 22:19 232 21.7
2019-Sep-15 22:09 21.7
2019-Sep-15 22:00 233 21.7
2019-Sep-15 21:49 233 22.2
2019-Sep-15 21:39 232 22.8
2019-Sep-15 21:29 232 0 gusting 0 22.8
2019-Sep-15 21:19 223 22.8
2019-Sep-15 21:09 093 0 gusting 1 23.3
2019-Sep-15 20:59 089 0 gusting 2 22.8
2019-Sep-15 20:49 112 22.8
2019-Sep-15 20:39 146 22.8
2019-Sep-15 20:29 207 22.8
2019-Sep-15 20:19 23.3
2019-Sep-15 20:09 23.3
2019-Sep-15 19:59 220 0 gusting 1 23.9
2019-Sep-15 19:49 210 0 gusting 2 23.9
2019-Sep-15 19:39 209 0 gusting 2 23.9
2019-Sep-15 19:29 217 1 gusting 3 23.9
2019-Sep-15 19:19 225 0 gusting 2 23.9
2019-Sep-15 19:09 206 0 gusting 2 23.9
2019-Sep-15 18:59 205 0 gusting 2 23.9
2019-Sep-15 18:49 212 0 gusting 1 23.9
2019-Sep-15 18:39 218 0 gusting 1 24.4
2019-Sep-15 18:29 215 0 gusting 2 24.4
2019-Sep-15 18:19 216 0 gusting 3 24.4
2019-Sep-15 18:09 217 0 gusting 3 24.4
2019-Sep-15 17:59 210 1 gusting 3 24.4
2019-Sep-15 17:49 220 1 gusting 4 24.4
2019-Sep-15 17:39 214 2 gusting 4 25.0
2019-Sep-15 17:29 230 3 gusting 7 25.0
2019-Sep-15 17:19 235 3 gusting 8 25.6
2019-Sep-15 17:09 233 2 gusting 6 25.6
2019-Sep-15 16:59 231 2 gusting 6 26.1
2019-Sep-15 16:49 233 5 gusting 10 26.1
2019-Sep-15 16:39 231 4 gusting 10 26.7
2019-Sep-15 16:29 232 4 gusting 10 26.7
2019-Sep-15 16:19 227 5 gusting 10 26.7
2019-Sep-15 16:09 230 6 gusting 10 27.2
2019-Sep-15 15:59 228 6 gusting 13 27.2
2019-Sep-15 15:49 225 4 gusting 11 27.2
2019-Sep-15 15:39 228 6 gusting 12 27.2
2019-Sep-15 15:29 230 5 gusting 12 27.2
2019-Sep-15 15:19 225 6 gusting 12 27.2
2019-Sep-15 15:09 224 6 gusting 12 27.8
2019-Sep-15 14:59 225 6 gusting 13 28.3
2019-Sep-15 14:49 231 4 gusting 10 28.3
2019-Sep-15 14:39 218 3 gusting 10 29.4
2019-Sep-15 14:29 234 4 gusting 8 29.4
2019-Sep-15 14:19 242 5 gusting 9 29.4
2019-Sep-15 14:09 236 4 gusting 11 30.0
2019-Sep-15 13:59 248 3 gusting 9 30.0
2019-Sep-15 13:49 212 0 gusting 7 30.6
2019-Sep-15 13:39 256 2 gusting 5 30.0
2019-Sep-15 13:29 233 2 gusting 8 30.0
2019-Sep-15 13:19 225 2 gusting 6 30.0
2019-Sep-15 13:09 213 2 gusting 6 30.0
2019-Sep-15 12:59 227 1 gusting 5 30.0
2019-Sep-15 12:49 029 2 gusting 5 29.4
2019-Sep-15 12:39 269 2 gusting 4 29.4
2019-Sep-15 12:29 250 1 gusting 6 29.4
2019-Sep-15 12:19 239 2 gusting 5 29.4
2019-Sep-15 12:09 223 3 gusting 6 28.9
2019-Sep-15 11:59 231 3 gusting 9 28.9
2019-Sep-15 11:49 241 1 gusting 6 28.9
2019-Sep-15 11:39 247 2 gusting 6 28.3
2019-Sep-15 11:29 236 3 gusting 7 28.3
2019-Sep-15 11:19 242 2 gusting 7 28.3
2019-Sep-15 11:09 226 1 gusting 5 28.3
2019-Sep-15 10:59 167 1 gusting 4 28.3
2019-Sep-15 10:49 203 1 gusting 4 27.8
2019-Sep-15 10:39 212 2 gusting 5 27.8
2019-Sep-15 10:29 231 1 gusting 6 27.8
2019-Sep-15 10:19 241 1 gusting 5 27.8
2019-Sep-15 10:09 242 1 gusting 4 27.2
2019-Sep-15 09:59 133 1 gusting 7 27.2
2019-Sep-15 09:49 260 0 gusting 4 26.7
2019-Sep-15 09:39 214 0 gusting 2 26.7
2019-Sep-15 09:29 235 1 gusting 3 25.6
2019-Sep-15 09:19 231 1 gusting 3 25.6
2019-Sep-15 09:09 235 0 gusting 2 25.6
2019-Sep-15 08:59 247 25.0
2019-Sep-15 08:49 269 25.0
2019-Sep-15 08:39 334 0 gusting 1 24.4
2019-Sep-15 08:29 008 23.9
2019-Sep-15 08:19 347 0 gusting 1 22.8
2019-Sep-15 08:09 030 0 gusting 3 22.2
2019-Sep-15 07:59 343 1 gusting 3 21.7
2019-Sep-15 07:49 043 1 gusting 3 21.1
2019-Sep-15 07:39 041 2 gusting 4 21.1
2019-Sep-15 07:29 045 2 gusting 4 20.6
2019-Sep-15 07:19 046 1 gusting 3 20.6
2019-Sep-15 07:09 055 1 gusting 2 20.0
2019-Sep-15 06:59 052 1 gusting 2 19.4
2019-Sep-15 06:49 057 0 gusting 1 19.4
2019-Sep-15 06:39 039 2 gusting 3 18.9
2019-Sep-15 06:29 042 3 gusting 5 18.3
2019-Sep-15 06:19 039 3 gusting 5 18.3
2019-Sep-15 06:09 037 2 gusting 4 18.3
2019-Sep-15 05:59 038 3 gusting 4 17.8
2019-Sep-15 05:49 036 2 gusting 3 17.8
2019-Sep-15 05:39 044 0 gusting 2 17.8
2019-Sep-15 05:29 024 1 gusting 1 17.8
2019-Sep-15 05:19 326 1 gusting 4 17.8
2019-Sep-15 05:09 320 0 gusting 3 17.8
2019-Sep-15 04:59 326 1 gusting 2 17.2
2019-Sep-15 04:49 349 2 gusting 3 17.2
2019-Sep-15 04:39 014 3 gusting 3 17.2
2019-Sep-15 04:29 019 3 gusting 5 17.8
2019-Sep-15 04:19 018 1 gusting 4 17.8
2019-Sep-15 04:09 036 2 gusting 4 17.8
2019-Sep-15 03:59 018 2 gusting 5 17.8
2019-Sep-15 03:49 041 2 gusting 3 17.8
2019-Sep-15 03:39 025 1 gusting 3 17.8
2019-Sep-15 03:29 013 2 gusting 4 17.8
2019-Sep-15 03:19 006 1 gusting 4 18.3
2019-Sep-15 03:09 024 1 gusting 2 18.3
2019-Sep-15 02:59 020 2 gusting 3 18.3
2019-Sep-15 02:49 028 2 gusting 3 18.3
2019-Sep-15 02:39 037 3 gusting 4 18.3
2019-Sep-15 02:29 034 3 gusting 4 18.3
2019-Sep-15 02:19 035 3 gusting 4 18.3
2019-Sep-15 02:09 029 3 gusting 3 18.3
2019-Sep-15 01:59 025 3 gusting 4 18.3
2019-Sep-15 01:49 024 2 gusting 3 18.3
2019-Sep-15 01:39 016 2 gusting 4 18.3
2019-Sep-15 01:29 356 1 gusting 5 18.9
2019-Sep-15 01:19 035 2 gusting 3 18.3
2019-Sep-15 01:09 024 3 gusting 4 18.3
2019-Sep-15 00:59 012 1 gusting 5 18.9
2019-Sep-15 00:49 004 1 gusting 3 19.4
2019-Sep-15 00:39 343 2 gusting 4 19.4
2019-Sep-15 00:29 355 3 gusting 5 19.4
2019-Sep-15 00:19 004 2 gusting 4 20.0
2019-Sep-15 00:09 332 1 gusting 4 20.0
2019-Sep-14 23:59 314 1 gusting 3 20.0
2019-Sep-14 23:49 302 0 gusting 2 20.6
2019-Sep-14 23:39 287 20.6
2019-Sep-14 23:29 350 20.6
2019-Sep-14 23:19 349 20.6
2019-Sep-14 23:09 004 20.6
2019-Sep-14 22:59 331 0 gusting 1 20.6
2019-Sep-14 22:49 314 20.6
2019-Sep-14 22:39 002 20.6
2019-Sep-14 22:29 232 20.6
2019-Sep-14 22:19 232 21.1
2019-Sep-14 22:09 232 21.7
2019-Sep-14 22:00 231 0 gusting 1 21.7